Regional Weather Roundup
Issued by NWS Newport/Morehead, NC

Home | Current Version | Previous Version | Text Only | Print | Product List | Glossary On
Versions: 1 2 3 4 5 6 7 8 9 10 11 12 13 14 15 16 17 18 19 20 21 22 23 24 25 26 27 28 29 30 31 32 33 34 35 36 37 38 39 40 41 42 43 44 45 46 47 48 49 50
000
ASUS42 KMHX 281325
RWRMHX
WEATHER ROUNDUP FOR EASTERN NORTH CAROLINA
NATIONAL WEATHER SERVICE NEWPORT/MOREHEAD CITY NC
900 AM EDT SAT MAY 28 2016

NOTE: "FAIR" INDICATES FEW OR NO CLOUDS BELOW 12,000 FEET
WITH NO SIGNIFICANT WEATHER AND/OR OBSTRUCTIONS TO VISIBILITY

NCZ015>017-031-032-045>047-102-103-281400-
NORTH COAST

CITY           SKY/WX    TMP DP  RH WIND       PRES   REMARKS
EDENTON        SUNNY    N/A N/A N/A SE3       30.21R
ELIZABETH CITY SUNNY     75  66  73 E6        30.20R
KITTY HAWK     SUNNY     76  66  69 E3        30.19S
MANTEO         NOT AVBL

$$

NCZ045>047-081-094-103-104-281400-
CENTRAL COAST

CITY           SKY/WX    TMP DP  RH WIND       PRES   REMARKS
FRISCO         SUNNY     79  69  71 E9        30.18R

$$

NCZ095-097-098-100-101-281400-
SOUTHERN COAST

CITY           SKY/WX    TMP DP  RH WIND       PRES   REMARKS
BEAUFORT       PTSUNNY   78  69  73 VRB7      30.16S
CEDAR ISLAND   NOT AVBL
JACKSONVILLE   SUNNY     76  68  76 E8        30.15S
PINEY ISLAND   NOT AVBL
WILMINGTON     SUNNY     77  69  76 E9        30.15R


$$

NCZ011>013-027>030-043-044-078>080-089-090>093-098-281400-
COASTAL PLAIN

CITY           SKY/WX    TMP DP  RH WIND       PRES   REMARKS
AHOSKIE        SUNNY     72  65  78 CALM      30.21R
CLINTON        MOSUNNY   74  69  81 CALM      30.18S
ELIZABETHTOWN  SUNNY     73  67  80 CALM      30.17R
GOLDSBORO      MOSUNNY  N/A N/A N/A MISG        N/A
GREENVILLE     SUNNY     73  68  83 E5        30.20R
HAVELOCK       PTSUNNY   79  68  69 E12       30.17R
KENANSVILLE    MOSUNNY   76  67  74 CALM      30.18S
KINSTON        SUNNY     73  68  83 NE5       30.19R
NEW BERN       SUNNY     76  70  82 NE7       30.18S
RICHLANDS      SUNNY     75  68  78 NE6       30.17R
ROCKY MOUNT    SUNNY     73  65  75 CALM      30.20R
WASHINGTON     SUNNY     74  67  78 CALM      30.20R
WHITEVILLE     MOSUNNY   74  68  82 NE7       30.15S

$$

AMZ130-135-150-152-154-156-158-170-250-252-270-ANZ085-086-088-633-658-670-281400-
MARINE OBSERVATIONS

STATION/POSITION TIME  TEMP    WIND        PRES    WAVE   SWELL
                       AIR SEA DIR/SP/G            HT/PER HT/PER
                 (UTC) (F)     (DEG/KT/KT) (MB)    (FT/S) (FT/S)
CHESAPEAKE LIGHT 1300   68     160/  7/  7 1023.6
64 E VA BEACH    1250   66 62   70/  4/  4 1022.8    3/ 8   2/ 8
DUCK             1300   70 60  100/  5/  6 1022.0
2 E DUCK         1211      63                N/A     2/ 7
OREGON INLET     1300   72 71   60/  6/  8 1022.3
13E OREGON INLT  1300      71                N/A     3/ 8   3/ 8
HATTERAS CG      1300   77 74              1021.3
DIAMOND BUOY     1250   77 78  100/ 12/ 14 1021.6    4/ 7   3/ 7
CAPE LOOKOUT     1300   75      70/  7/  8 1020.9
BEAUFORT LAB     1300   77 73  100/  8/ 11 1020.5
30 SE NEW RVR IN 1225      74                N/A     5/10   2/11
27 SE WRIGHTSVLE 1308   77 74  100/ 10/ 14 1020.1
5 SE WRIGHTSVLE  1208   75 74   60/ 10/ 14 1020.9
225 S CAPE HAT   1250   77 77   90/ 17/ 19 1018.8    4/ 6   2/ 7
41 SE CHARLESTON 1250   77 76   50/ 16/ 17 1017.8    5/ 9   3/ 9

$$




USA.gov is the U.S. government's official web portal to all federal, state and local government web resources and services.